TimeCDT,TemperatureF,Dew PointF,Humidity,Sea Level PressureIn,VisibilityMPH,Wind Direction,Wind SpeedMPH,Gust SpeedMPH,PrecipitationIn,Events,Conditions,WindDirDegrees,DateUTC
12:53 AM,52.0,44.1,74,29.31,10.0,SE,6.9,-,N/A,,Partly Cloudy,140,2012-10-17 05:53:00
1:53 AM,53.1,44.1,71,29.29,10.0,SSE,8.1,-,N/A,,Scattered Clouds,150,2012-10-17 06:53:00
2:53 AM,53.1,45.0,74,29.27,10.0,SE,6.9,-,N/A,,Overcast,140,2012-10-17 07:53:00
3:53 AM,53.1,46.0,77,29.25,10.0,SSE,10.4,-,N/A,,Overcast,150,2012-10-17 08:53:00
4:53 AM,53.1,46.0,77,29.23,10.0,SE,8.1,-,N/A,,Overcast,130,2012-10-17 09:53:00
5:53 AM,52.0,46.9,83,29.21,10.0,ESE,3.5,-,N/A,,Overcast,110,2012-10-17 10:53:00
6:53 AM,50.0,48.0,93,29.21,6.0,ESE,3.5,-,0.01,Rain,Light Rain,120,2012-10-17 11:53:00
7:53 AM,48.9,48.0,97,29.19,4.0,ESE,4.6,-,0.06,Rain,Light Rain,110,2012-10-17 12:53:00
8:45 AM,48.2,48.2,100,29.16,2.5,Calm,Calm,-,0.08,Rain,Light Rain,0,2012-10-17 13:45:00
8:53 AM,48.9,48.0,97,29.18,2.5,ESE,3.5,-,0.09,Rain,Light Rain,120,2012-10-17 13:53:00
9:04 AM,48.2,48.2,100,29.16,1.5,ESE,3.5,-,0.03,Rain,Rain,120,2012-10-17 14:04:00
9:39 AM,50.0,48.2,94,29.15,2.0,East,4.6,-,0.06,Rain,Light Rain,90,2012-10-17 14:39:00
9:53 AM,50.0,48.9,96,29.14,2.0,NE,5.8,-,0.07,Rain,Light Rain,50,2012-10-17 14:53:00
10:01 AM,50.0,48.2,94,29.12,2.5,NE,5.8,-,0.00,Rain,Light Rain,40,2012-10-17 15:01:00
10:32 AM,50.0,48.2,94,29.10,2.5,NE,6.9,-,0.02,Rain,Light Rain,40,2012-10-17 15:32:00
10:44 AM,50.0,48.2,94,29.09,3.0,NE,4.6,-,0.02,Rain,Light Rain,40,2012-10-17 15:44:00
10:53 AM,50.0,48.9,96,29.10,2.0,NNE,4.6,-,0.06,Rain,Rain,20,2012-10-17 15:53:00
11:02 AM,50.0,48.2,94,29.08,3.0,North,8.1,-,0.01,Rain,Light Rain,360,2012-10-17 16:02:00
11:12 AM,50.0,48.2,94,29.08,4.0,Calm,Calm,-,0.01,Rain,Light Rain,0,2012-10-17 16:12:00
11:53 AM,50.0,48.9,96,29.08,4.0,East,3.5,-,0.01,,Overcast,100,2012-10-17 16:53:00
12:53 PM,50.0,48.0,93,29.08,2.5,South,3.5,-,N/A,,Overcast,190,2012-10-17 17:53:00
1:03 PM,50.0,48.2,94,29.06,1.5,SSE,3.5,-,0.00,Rain,Light Rain,160,2012-10-17 18:03:00
1:37 PM,48.2,48.2,100,29.06,1.8,West,16.1,-,0.03,Rain,Light Rain,270,2012-10-17 18:37:00
1:42 PM,48.2,48.2,100,29.06,3.0,West,12.7,-,0.03,Rain,Light Rain,270,2012-10-17 18:42:00
1:53 PM,48.9,48.0,97,29.08,3.0,West,18.4,-,0.04,Rain,Light Rain,270,2012-10-17 18:53:00
2:10 PM,48.2,46.4,93,29.07,10.0,West,16.1,-,0.00,Rain,Light Rain,270,2012-10-17 19:10:00
2:25 PM,48.2,46.4,93,29.08,10.0,West,13.8,-,0.01,,Overcast,260,2012-10-17 19:25:00
2:37 PM,48.2,46.4,93,29.08,10.0,WSW,13.8,-,0.01,,Overcast,250,2012-10-17 19:37:00
2:53 PM,48.9,46.9,93,29.10,10.0,West,16.1,24.2,0.01,,Overcast,260,2012-10-17 19:53:00
3:53 PM,48.9,46.0,90,29.12,10.0,West,16.1,24.2,0.00,,Overcast,260,2012-10-17 20:53:00
4:53 PM,48.9,46.9,93,29.13,7.0,WSW,11.5,-,N/A,,Overcast,250,2012-10-17 21:53:00
5:23 PM,48.2,44.6,87,29.14,10.0,West,13.8,21.9,N/A,,Overcast,260,2012-10-17 22:23:00
5:53 PM,46.0,44.1,93,29.16,10.0,WSW,20.7,24.2,N/A,,Overcast,250,2012-10-17 22:53:00
6:53 PM,45.0,44.1,97,29.18,6.0,WSW,11.5,-,N/A,,Overcast,240,2012-10-17 23:53:00
7:53 PM,44.1,43.0,96,29.20,6.0,SW,11.5,-,0.00,Rain,Light Rain,230,2012-10-18 00:53:00
8:20 PM,44.6,42.8,93,29.19,9.0,SW,9.2,-,0.00,Rain,Light Rain,230,2012-10-18 01:20:00
8:27 PM,44.6,42.8,93,29.19,10.0,SW,9.2,-,0.00,,Overcast,220,2012-10-18 01:27:00
8:37 PM,44.6,42.8,93,29.19,9.0,SW,10.4,-,0.00,,Overcast,220,2012-10-18 01:37:00
8:53 PM,44.1,43.0,96,29.21,5.0,SSW,9.2,-,0.00,,Overcast,210,2012-10-18 01:53:00
9:02 PM,44.6,42.8,93,29.19,7.0,SSW,9.2,-,N/A,,Overcast,210,2012-10-18 02:02:00
9:16 PM,44.6,42.8,93,29.18,9.0,SW,9.2,-,N/A,,Overcast,230,2012-10-18 02:16:00
9:53 PM,44.1,42.1,93,29.20,10.0,WSW,12.7,-,N/A,,Overcast,240,2012-10-18 02:53:00
10:53 PM,44.1,41.0,89,29.21,10.0,WSW,9.2,18.4,N/A,,Overcast,240,2012-10-18 03:53:00
11:27 PM,42.8,41.0,93,29.18,10.0,SW,8.1,-,N/A,,Overcast,220,2012-10-18 04:27:00
11:53 PM,43.0,41.0,93,29.18,10.0,SW,8.1,-,N/A,,Overcast,230,2012-10-18 04:53:00